South Bend, IN

6:38 PM EDT on June 21, 2018 (GMT -0400)
South Bend Regional

Weather History for KSBN - September, 2017

Change the Weather History Date:

Thursday, September 14, 2017

  Actual Average Record
Temperature  
Mean Temperature 65 °F 65 °F  
Max Temperature 77 °F 75 °F 98 °F (1897)
Min Temperature 53 °F 55 °F 36 °F (1899)
Degree Days  
Heating Degree Days 0 3  
Month to date heating degree days 67 26  
Since 1 July heating degree days 88 44  
Cooling Degree Days 0 3  
Month to date cooling degree days 7 55  
Year to date cooling degree days 559 737  
Growing Degree Days 15 (Base 50)    
Moisture  
Dew Point 58 °F    
Average Humidity 78    
Maximum Humidity 100    
Minimum Humidity 56    
Precipitation  
Precipitation 0.00 in 0.11 in 4.07 in (2008)
Month to date precipitation 1.11 1.64  
Year to date precipitation 28.70 26.91  
Sea Level Pressure  
Sea Level Pressure 29.88 in    
Wind  
Wind Speed 2 mph (South)    
Max Wind Speed 9 mph    
Max Gust Speed 12 mph    
Visibility 4 miles    
Events Fog    
T = Trace of Precipitation, MM = Missing Value Source: NWS Daily Summary

Daily Weather History Graph

Daily Weather History Graph

Search for Another Location

Airport or City:

Astronomy

Sep. 14, 2017 Rise Set
Actual Time 7:24 AM EDT 7:55 PM EDT
Civil Twilight 6:56 AM EDT 8:23 PM EDT
Nautical Twilight 6:23 AM EDT 8:56 PM EDT
Astronomical Twilight 5:49 AM EDT 9:30 PM EDT
Moon 1:17 AM EDT (9/14) 4:16 PM EDT (9/14)
Length of Visible Light 13h 26m
Length of Day
12h 31m
Waning Crescent, 34% of the Moon is Illuminated
Sep 14
Waning Crescent
Sep 20
New
Sep 27
First Quarter
Oct 5
Full
Oct 12
Last Quarter

Hourly Weather History & Observations

Time (EDT) Temp. Dew Point Humidity Pressure Visibility Wind Dir Wind Speed Gust Speed Precip Events Conditions
12:54 AM 59.0 °F 59.0 °F 100% 29.83 in 10.0 mi Calm Calm - N/A   Clear
1:44 AM 57.0 °F 57.0 °F 100% 29.83 in 4.0 mi Calm Calm - N/A   Partly Cloudy
1:47 AM 55.9 °F 55.9 °F 100% 29.82 in 1.2 mi Calm Calm - N/A   Scattered Clouds
1:50 AM 55.4 °F 55.4 °F 100% 29.82 in 0.5 mi Calm Calm - N/A Fog Fog
1:54 AM 55.9 °F 55.9 °F 100% 29.82 in 0.5 mi Calm Calm - N/A Fog Fog
2:04 AM 55.9 °F 55.9 °F 100% 29.83 in 1.0 mi Calm Calm - N/A   Mist
2:08 AM 55.0 °F 55.0 °F 100% 29.83 in 2.0 mi Calm Calm - N/A   Scattered Clouds
2:15 AM 55.9 °F 55.9 °F 100% 29.83 in 1.0 mi Calm Calm - N/A   Mist
2:23 AM 55.0 °F 55.0 °F 100% 29.83 in 2.0 mi Calm Calm - N/A   Partly Cloudy
2:36 AM 54.0 °F 54.0 °F 100% 29.83 in 2.0 mi Calm Calm - N/A   Mostly Cloudy
2:51 AM 55.4 °F 55.4 °F 100% 29.83 in 9.0 mi Calm Calm - N/A   Overcast
2:54 AM 55.9 °F 55.9 °F 100% 29.83 in 10.0 mi Calm Calm - N/A   Mostly Cloudy
3:05 AM 55.9 °F 55.9 °F 100% 29.83 in 10.0 mi North 3.5 mph - N/A   Mostly Cloudy
3:14 AM 55.0 °F 55.0 °F 100% 29.83 in 2.0 mi NW 4.6 mph - N/A   Mostly Cloudy
3:25 AM 55.9 °F 55.9 °F 100% 29.83 in 10.0 mi Calm Calm - N/A   Scattered Clouds
3:54 AM 54.0 °F 54.0 °F 100% 29.84 in 10.0 mi Calm Calm - N/A   Scattered Clouds
4:23 AM 54.0 °F 54.0 °F 100% 29.85 in 2.5 mi Calm Calm - N/A   Mostly Cloudy
4:28 AM 53.1 °F 53.1 °F 100% 29.84 in 0.8 mi Calm Calm - N/A   Mostly Cloudy
4:40 AM 54.0 °F 54.0 °F 100% 29.85 in 1.8 mi Calm Calm - N/A   Overcast
4:44 AM 54.0 °F 54.0 °F 100% 29.85 in 3.0 mi Calm Calm - N/A   Overcast
4:54 AM 55.0 °F 55.0 °F 100% 29.85 in 4.0 mi Calm Calm - N/A   Overcast
5:18 AM 55.9 °F 55.9 °F 100% 29.86 in 1.8 mi Calm Calm - N/A   Overcast
5:25 AM 55.9 °F 55.9 °F 100% 29.86 in 1.8 mi Calm Calm - N/A   Overcast
5:42 AM 57.0 °F 57.0 °F 100% 29.86 in 0.5 mi Calm Calm - N/A Fog Fog
5:52 AM 57.2 °F 57.2 °F 100% 29.86 in 1.0 mi Calm Calm - N/A   Mist
5:54 AM 57.0 °F 57.0 °F 100% 29.86 in 1.2 mi Calm Calm - N/A   Overcast
5:58 AM 57.0 °F 57.0 °F 100% 29.86 in 0.5 mi Calm Calm - N/A Fog Fog
6:15 AM 57.0 °F 57.0 °F 100% 29.87 in 0.5 mi Calm Calm - N/A Fog Fog
6:30 AM 57.0 °F 57.0 °F 100% 29.87 in 0.2 mi Calm Calm - N/A Fog Fog
6:54 AM 57.9 °F 57.9 °F 100% 29.87 in 0.2 mi Calm Calm - N/A Fog Fog
7:17 AM 57.9 °F 57.9 °F 100% 29.88 in 0.2 mi SE 3.5 mph - N/A Fog Fog
7:22 AM 57.9 °F 57.9 °F 100% 29.88 in 0.2 mi SE 4.6 mph - N/A Fog Fog
7:36 AM 59.0 °F 59.0 °F 100% 29.89 in 0.2 mi SSE 4.6 mph - N/A Fog Fog
7:54 AM 59.0 °F 59.0 °F 100% 29.90 in 0.2 mi SE 5.8 mph - N/A Fog Fog
8:25 AM 59.0 °F 59.0 °F 100% 29.91 in 0.2 mi South 4.6 mph - N/A Fog Fog
8:54 AM 57.9 °F 57.9 °F 100% 29.91 in 0.2 mi Calm Calm - N/A Fog Fog
9:40 AM 59.0 °F 59.0 °F 100% 29.93 in 0.2 mi Calm Calm - N/A Fog Fog
9:54 AM 59.0 °F 59.0 °F 100% 29.94 in 0.2 mi Calm Calm - N/A Fog Fog
10:20 AM 59.0 °F 59.0 °F 100% 29.95 in 0.5 mi Calm Calm - N/A Fog Fog
10:41 AM 60.1 °F 60.1 °F 100% 29.95 in 1.0 mi Calm Calm - N/A   Mist
10:54 AM 60.1 °F 60.1 °F 100% 29.95 in 2.5 mi Calm Calm - N/A   Overcast
11:02 AM 60.1 °F 60.1 °F 100% 29.95 in 3.0 mi Calm Calm - N/A   Overcast
11:54 AM 64.0 °F 62.1 °F 93% 29.94 in 3.0 mi Calm Calm - N/A   Overcast
12:28 PM 66.9 °F 62.1 °F 84% 29.94 in 10.0 mi Calm Calm - N/A   Partly Cloudy
12:54 PM 68.0 °F 61.0 °F 78% 29.93 in 10.0 mi SSE 3.5 mph - N/A   Partly Cloudy
1:54 PM 72.0 °F 61.0 °F 68% 29.92 in 10.0 mi Calm Calm - N/A   Scattered Clouds
2:20 PM 72.0 °F 61.0 °F 68% 29.93 in 10.0 mi Variable 4.6 mph - N/A   Mostly Cloudy
2:42 PM 73.0 °F 61.0 °F 66% 29.92 in 10.0 mi Variable 3.5 mph - N/A   Scattered Clouds
2:54 PM 73.0 °F 61.0 °F 66% 29.91 in 10.0 mi SW 5.8 mph - N/A   Partly Cloudy
3:54 PM 77.0 °F 61.0 °F 58% 29.91 in 10.0 mi Calm Calm - N/A   Partly Cloudy
4:54 PM 73.9 °F 59.0 °F 59% 29.90 in 10.0 mi SSW 4.6 mph - N/A   Partly Cloudy
5:54 PM 75.9 °F 60.1 °F 58% 29.91 in 10.0 mi Variable 4.6 mph - N/A   Overcast
6:54 PM 73.9 °F 60.1 °F 62% 29.92 in 10.0 mi SW 4.6 mph - N/A   Scattered Clouds
7:54 PM 71.1 °F 61.0 °F 70% 29.94 in 10.0 mi South 5.8 mph - N/A   Scattered Clouds
8:54 PM 69.1 °F 61.0 °F 75% 29.95 in 10.0 mi South 4.6 mph - N/A   Overcast
9:54 PM 66.0 °F 61.0 °F 84% 29.97 in 10.0 mi South 6.9 mph - N/A   Scattered Clouds
10:54 PM 64.0 °F 60.1 °F 87% 29.98 in 10.0 mi South 4.6 mph - N/A   Clear
11:54 PM 63.0 °F 60.1 °F 90% 29.98 in 10.0 mi South 3.5 mph - N/A   Clear